Sturgis, MI

2:30 PM EST on December 07, 2019 (GMT -0500)
Kirsch Municipal

Weather History for KIRS - October, 2019

Change the Weather History Date:

Monday, October 7, 2019

  Actual Average (WUND) Record (WUND)
Temperature  
Mean Temperature 60 °F -  
Max Temperature 71 °F - - (-1)
Min Temperature 49 °F - - (-1)
Degree Days  
Heating Degree Days 5    
Growing Degree Days 10 (Base 50)    
Moisture  
Dew Point 42 °F    
Average Humidity 61    
Maximum Humidity 89    
Minimum Humidity 22    
Precipitation  
Precipitation 0.00 in - - ()
Sea Level Pressure  
Sea Level Pressure 30.16 in    
Wind  
Wind Speed 4 mph ()    
Max Wind Speed 13 mph    
Max Gust Speed 20 mph    
Visibility 10.0 miles    
Events      
Averages and records for this station are not official NWS values.
T = Trace of Precipitation, MM = Missing Value Source: Averaged Metar Reports

Daily Weather History Graph

Daily Weather History Graph

Search for Another Location

Airport or City:

Astronomy

Oct. 07, 2019 Rise Set
Actual Time 7:44 AM EDT 7:13 PM EDT
Civil Twilight 7:17 AM EDT 7:41 PM EDT
Nautical Twilight 6:44 AM EDT 8:13 PM EDT
Astronomical Twilight 6:12 AM EDT 8:45 PM EDT
Moon 4:41 PM EDT 1:30 AM EDT
Length of Visible Light 12h 24m
Length of Day
11h 28m
Waxing Gibbous, 69% of the Moon is Illuminated
Oct 7
Waxing Gibbous
Oct 13
Full
Oct 21
Last Quarter
Oct 27
New
Nov 4
First Quarter

Hourly Weather History & Observations

Time (EDT) Temp. Dew Point Humidity Pressure Visibility Wind Dir Wind Speed Gust Speed Precip Events Conditions
12:00 AM 56.5 °F 44.8 °F 65% 30.11 in 10.0 mi Calm Calm - N/A   Clear
12:18 AM 55.8 °F 45.7 °F 69% 30.13 in 10.0 mi SW 3.5 mph - N/A   Clear
12:36 AM 55.9 °F 45.3 °F 68% 30.12 in 10.0 mi Calm Calm - N/A   Clear
12:55 AM 56.3 °F 43.9 °F 63% 30.13 in 10.0 mi Calm Calm - N/A   Clear
1:15 AM 55.4 °F 43.7 °F 65% 30.13 in 10.0 mi SW 3.5 mph - N/A   Clear
1:16 AM 55.4 °F 43.9 °F 65% 30.13 in 10.0 mi SW 3.5 mph - N/A   Clear
1:39 AM 54.9 °F 44.2 °F 67% 30.12 in 10.0 mi WSW 3.5 mph - N/A   Clear
1:57 AM 55.9 °F 43.5 °F 63% 30.12 in 10.0 mi WNW 5.8 mph - N/A   Clear
2:15 AM 56.3 °F 43.5 °F 62% 30.12 in 10.0 mi West 5.8 mph - N/A   Clear
2:16 AM 56.3 °F 43.5 °F 62% 30.12 in 10.0 mi WNW 5.8 mph - N/A   Clear
2:35 AM 56.5 °F 43.5 °F 62% 30.12 in 10.0 mi West 4.6 mph - N/A   Clear
2:36 AM 56.7 °F 43.5 °F 61% 30.12 in 10.0 mi West 4.6 mph - N/A   Clear
2:55 AM 56.3 °F 44.1 °F 64% 30.12 in 10.0 mi West 5.8 mph - N/A   Clear
3:18 AM 55.6 °F 44.1 °F 65% 30.11 in 10.0 mi West 4.6 mph - N/A   Clear
3:36 AM 55.2 °F 44.2 °F 67% 30.12 in 10.0 mi West 4.6 mph - N/A   Clear
3:55 AM 53.8 °F 44.2 °F 70% 30.12 in 10.0 mi West 3.5 mph - N/A   Clear
3:56 AM 53.8 °F 44.2 °F 70% 30.12 in 10.0 mi West 4.6 mph - N/A   Clear
4:15 AM 54.3 °F 44.8 °F 70% 30.12 in 10.0 mi West 4.6 mph - N/A   Clear
4:39 AM 53.6 °F 44.6 °F 72% 30.12 in 10.0 mi WSW 4.6 mph - N/A   Clear
4:57 AM 52.7 °F 44.6 °F 74% 30.13 in 10.0 mi WSW 4.6 mph - N/A   Clear
5:15 AM 52.0 °F 44.6 °F 76% 30.13 in 10.0 mi West 3.5 mph - N/A   Clear
5:16 AM 52.0 °F 44.6 °F 76% 30.13 in 10.0 mi West 3.5 mph - N/A   Clear
5:35 AM 52.5 °F 44.8 °F 75% 30.13 in 10.0 mi West 3.5 mph - N/A   Clear
5:55 AM 52.2 °F 45.0 °F 76% 30.13 in 10.0 mi West 4.6 mph - N/A   Clear
6:18 AM 51.8 °F 45.5 °F 79% 30.14 in 10.0 mi West 3.5 mph - N/A   Clear
6:36 AM 51.8 °F 45.9 °F 80% 30.14 in 10.0 mi West 3.5 mph - N/A   Clear
6:55 AM 51.6 °F 46.0 °F 81% 30.14 in 10.0 mi West 3.5 mph - N/A   Clear
6:56 AM 51.6 °F 46.2 °F 82% 30.14 in 10.0 mi West 3.5 mph - N/A   Clear
7:15 AM 51.3 °F 46.2 °F 83% 30.14 in 10.0 mi West 4.6 mph - N/A   Clear
7:39 AM 50.9 °F 46.0 °F 83% 30.14 in 10.0 mi West 3.5 mph - N/A   Clear
7:57 AM 50.0 °F 45.7 °F 85% 30.14 in 10.0 mi West 3.5 mph - N/A   Clear
8:15 AM 49.1 °F 45.1 °F 86% 30.14 in 10.0 mi Calm Calm - N/A   Clear
8:35 AM 49.6 °F 45.9 °F 87% 30.15 in 10.0 mi West 3.5 mph - N/A   Clear
8:55 AM 50.2 °F 46.6 °F 87% 30.15 in 10.0 mi Calm Calm - N/A   Clear
8:59 AM 50.7 °F 47.1 °F 87% 30.15 in 10.0 mi Calm Calm - N/A   Clear
9:18 AM 53.8 °F 48.7 °F 83% 30.16 in 10.0 mi Calm Calm - N/A   Clear
9:36 AM 56.3 °F 49.1 °F 77% 30.16 in 10.0 mi West 4.6 mph - N/A   Clear
9:55 AM 56.1 °F 49.3 °F 78% 30.17 in 10.0 mi West 3.5 mph - N/A   Clear
9:56 AM 56.1 °F 49.3 °F 78% 30.17 in 10.0 mi West 4.6 mph - N/A   Clear
10:15 AM 58.8 °F 49.5 °F 71% 30.18 in 10.0 mi WNW 3.5 mph - N/A   Clear
10:38 AM 61.7 °F 49.6 °F 65% 30.17 in 10.0 mi West 5.8 mph - N/A   Clear
10:57 AM 62.6 °F 48.4 °F 60% 30.18 in 10.0 mi West 5.8 mph - N/A   Clear
11:15 AM 63.7 °F 46.0 °F 53% 30.17 in 10.0 mi WSW 3.5 mph - N/A   Clear
11:35 AM 64.8 °F 46.6 °F 52% 30.17 in 10.0 mi West 4.6 mph - N/A   Clear
11:55 AM 66.9 °F 43.0 °F 42% 30.17 in 10.0 mi West 5.8 mph - N/A   Clear
12:18 PM 67.1 °F 40.6 °F 38% 30.17 in 10.0 mi West 6.9 mph - N/A   Clear
12:36 PM 67.6 °F 39.0 °F 35% 30.17 in 10.0 mi West 6.9 mph - N/A   Clear
12:55 PM 67.8 °F 38.5 °F 34% 30.17 in 10.0 mi WSW 6.9 mph - N/A   Clear
12:56 PM 67.8 °F 38.5 °F 34% 30.17 in 10.0 mi West 9.2 mph - N/A   Clear
1:15 PM 68.5 °F 37.8 °F 32% 30.17 in 10.0 mi West 8.1 mph - N/A   Clear
1:16 PM 68.7 °F 37.8 °F 32% 30.17 in 10.0 mi West 9.2 mph - N/A   Clear
1:39 PM 69.4 °F 38.7 °F 32% 30.16 in 10.0 mi West 6.9 mph - N/A   Clear
1:57 PM 69.8 °F 37.2 °F 30% 30.16 in 10.0 mi West 12.7 mph - N/A   Clear
2:15 PM 70.0 °F 34.9 °F 28% 30.15 in 10.0 mi WNW 9.2 mph 16.1 mph N/A   Clear
2:16 PM 70.0 °F 34.9 °F 28% 30.15 in 10.0 mi West 9.2 mph 16.1 mph N/A   Clear
2:35 PM 70.2 °F 34.5 °F 27% 30.15 in 10.0 mi West 11.5 mph 19.6 mph N/A   Clear
2:55 PM 71.6 °F 36.3 °F 28% 30.14 in 10.0 mi West 8.1 mph - N/A   Clear
3:18 PM 70.9 °F 31.8 °F 24% 30.14 in 10.0 mi WNW 9.2 mph - N/A   Clear
3:36 PM 70.3 °F 29.3 °F 22% 30.14 in 10.0 mi WNW 10.4 mph 18.4 mph N/A   Clear
3:55 PM 70.9 °F 30.6 °F 22% 30.14 in 10.0 mi West 11.5 mph - N/A   Clear
4:15 PM 70.5 °F 30.0 °F 22% 30.14 in 10.0 mi WNW 11.5 mph 18.4 mph N/A   Clear
4:39 PM 69.6 °F 32.2 °F 25% 30.14 in 10.0 mi NW 8.1 mph 17.3 mph N/A   Clear
4:57 PM 69.3 °F 32.2 °F 25% 30.14 in 10.0 mi WNW 9.2 mph 16.1 mph N/A   Clear
5:15 PM 68.9 °F 32.2 °F 26% 30.15 in 10.0 mi WNW 10.4 mph 17.3 mph N/A   Clear
5:35 PM 68.0 °F 34.0 °F 28% 30.15 in 10.0 mi NW 8.1 mph - N/A   Clear
5:55 PM 66.9 °F 32.4 °F 28% 30.16 in 10.0 mi NNW 8.1 mph - N/A   Clear
6:00 PM 66.6 °F 33.3 °F 29% 30.16 in 10.0 mi NW 5.8 mph - N/A   Clear
6:18 PM 65.5 °F 33.8 °F 31% 30.17 in 10.0 mi NW 8.1 mph - N/A   Clear
6:36 PM 64.2 °F 36.7 °F 36% 30.17 in 10.0 mi NW 6.9 mph - N/A   Clear
6:55 PM 62.8 °F 38.7 °F 41% 30.17 in 10.0 mi NW 6.9 mph - N/A   Clear
7:15 PM 60.3 °F 39.2 °F 46% 30.18 in 10.0 mi NNW 3.5 mph - N/A   Clear
7:16 PM 60.3 °F 39.2 °F 46% 30.18 in 10.0 mi NW 3.5 mph - N/A   Clear
7:38 PM 58.1 °F 40.5 °F 52% 30.18 in 10.0 mi Calm Calm - N/A   Clear
7:57 PM 54.7 °F 42.8 °F 64% 30.18 in 10.0 mi Calm Calm - N/A   Clear
8:15 PM 55.2 °F 42.8 °F 63% 30.19 in 10.0 mi Calm Calm - N/A   Clear
8:35 PM 52.3 °F 43.0 °F 70% 30.19 in 10.0 mi Calm Calm - N/A   Clear
8:36 PM 52.3 °F 43.2 °F 71% 30.19 in 10.0 mi Calm Calm - N/A   Clear
8:55 PM 51.3 °F 45.0 °F 79% 30.20 in 10.0 mi Calm Calm - N/A   Clear
8:56 PM 51.1 °F 45.0 °F 80% 30.20 in 10.0 mi Calm Calm - N/A   Clear
9:19 PM 50.5 °F 45.7 °F 83% 30.20 in 10.0 mi Calm Calm - N/A   Clear
9:37 PM 50.9 °F 45.1 °F 81% 30.21 in 10.0 mi Calm Calm - N/A   Clear
9:55 PM 50.4 °F 45.5 °F 83% 30.21 in 10.0 mi Calm Calm - N/A   Clear
10:15 PM 50.9 °F 46.2 °F 84% 30.22 in 10.0 mi Calm Calm - N/A   Clear
10:16 PM 50.9 °F 46.2 °F 84% 30.22 in 10.0 mi Calm Calm - N/A   Clear
10:35 PM 50.7 °F 46.2 °F 85% 30.22 in 10.0 mi Calm Calm - N/A   Clear
10:40 PM 49.6 °F 45.7 °F 86% 30.22 in 10.0 mi Calm Calm - N/A   Clear
10:58 PM 50.2 °F 45.9 °F 85% 30.22 in 10.0 mi Calm Calm - N/A   Clear
11:16 PM 50.0 °F 45.9 °F 86% 30.23 in 10.0 mi Calm Calm - N/A   Clear
11:35 PM 49.1 °F 45.9 °F 89% 30.23 in 10.0 mi Calm Calm - N/A   Clear
11:36 PM 49.1 °F 45.9 °F 89% 30.23 in 10.0 mi Calm Calm - N/A   Clear
11:55 PM 49.3 °F 46.2 °F 89% 30.23 in 10.0 mi Calm Calm - N/A   Clear